Voltar ao catálogo

BREEZE-M DEB

AtivoHEO
NORAD 38583·DEBRIS·🇷🇺 Russia

Lançado Mar 14, 2008 de Baikonur Cosmodrome

Loading…

Próximas Passagens (próximas 24 horas)

TLE

AtualizadoSource: Space-Track

Época: Sep 12, 2026, 23:35 UTC

1 38583U 08011AE  26255.98292078  .00001417  00000-0  34986-2 0  9997
2 38583  49.3091 143.6680 6488177  39.2390 353.3049  3.20331592176661

Acompanhe BREEZE-M DEB em tempo real com AllMySat

Download on the App Store